Regional Weather Roundup
Issued by NWS

Home | Current Version | Previous Version | Text Only | Print | Product List | Glossary Off
Versions: 1 2 3 4 5 6 7 8 9 10 11 12 13 14 15 16 17 18 19 20 21 22 23 24 25 26 27 28 29 30 31 32 33 34 35 36 37 38 39 40 41 42 43 44 45 46 47 48 49 50

000
ASUS43 KMKX 080700
RWRWI

WISCONSIN REGIONAL WEATHER ROUNDUP
NATIONAL WEATHER SERVICE MILWAUKEE/SULLIVAN WI
100 AM CST MON FEB 08 2016

NOTE: "FAIR" INDICATES FEW OR NO CLOUDS BELOW 12,000 FEET WITH NO
SIGNIFICANT WEATHER AND/OR OBSTRUCTIONS TO VISIBILITY.

WIZ001-002-006>008-014>016-023>028-080800-
NORTHWEST WISCONSIN

CITY           SKY/WX    TMP DP  RH WIND       PRES   REMARKS
SUPERIOR ARPT  CLOUDY    19  13  77 NW16G22   29.72R WCI   5
ASHLAND        LGT SNOW  26  24  92 N8        29.63S FOG     WCI  18
HAYWARD        FLURRIES  20  15  81 VRB7      29.64R WCI  11
SIREN          FLURRIES  17  11  76 NW14      29.72S WCI   3
CUMBERLAND     FLURRIES  18  12  79 NW15G22   29.66S WCI   3
RICE LAKE      FLURRIES  19  13  78 NW15      29.69R WCI   5
CHETEK         CLOUDY    19  14  80 NW7G17    29.67R WCI  10
LADYSMITH      CLOUDY    24  19  83 NW15      29.63R WCI  11
EAU CLAIRE     LGT SNOW  19  12  73 NW12      29.67S WCI   7
MENOMONIE      LGT SNOW  20  15  79 NW17      29.70R WCI   6
NEW RICHMOND   CLOUDY    17  10  75 NW17      29.72S WCI   1
OSCEOLA        FLURRIES  17  10  73 NW12G21   29.77S WCI   5
$$

WIZ003>005-009-010-017-018-080800-
NORTH CENTRAL WISCONSIN

CITY           SKY/WX    TMP DP  RH WIND       PRES   REMARKS
MANITOWISH WTR LGT SNOW  27  26  97 W6        29.51S WCI  20
ARBOR VITAE    FLURRIES  32  29  88 NW9       29.52R WCI  24
WOODRUFF       FLURRIES  32  29  88 NW9       29.52R WCI  24
RHINELANDER    LGT SNOW  29  26  89 W8        29.51S FOG     WCI  21
EAGLE RIVER    CLOUDY    30  30  99 W5        29.50S WCI  25
LAND O LAKES   CLOUDY    30  29  96 CALM      29.51R
PHILLIPS       LGT SNOW  24  22  91 NW9       29.55S WCI  14
TOMAHAWK       LGT SNOW  27  24  87 W9        29.55R WCI  18
MEDFORD        LGT SNOW  24  22  89 NW7       29.56S WCI  16
MERRILL        LGT SNOW  29  28  95 W8        29.56R WCI  21
$$

WIZ029-030-035-036-043>047-080800-
CENTRAL WISCONSIN

CITY           SKY/WX    TMP DP  RH WIND       PRES   REMARKS
WAUSAU         FLURRIES  30  25  81 W12       29.54S WCI  20
MOSINEE        CLOUDY    30  28  93 W14G21    29.57S WCI  20
MARSHFIELD     LGT SNOW  26  20  77 NW16      29.57F WCI  14
STEVENS POINT  MIX PCPN  29  25  84 W8        29.57S WCI  21
WAUPACA        CLOUDY    36  32  85 W7        29.56F WCI  30
WAUTOMA        MIX PCPN  34  32  93 NW12      29.58S FOG     WCI  25
WISC RAPIDS    CLOUDY    29  22  75 NW9       29.60S WCI  20
CAMP DOUGLAS   NOT AVBL
$$

WIZ011>013-019>022-031-037>040-048>050-080800-
NORTHEAST WISCONSIN

CITY           SKY/WX    TMP DP  RH WIND       PRES   REMARKS
ANTIGO         CLOUDY    31  30  96 W8        29.52S WCI  23
SHAWANO        CLOUDY    37  28  70 SW3       29.55F
OCONTO         CLOUDY    35  28  77 W3        29.55F
STURGEON BAY   MOCLDY    34  27  75 SW6       29.58S WCI  29
GREEN BAY      CLOUDY    35  28  75 SW5       29.56F WCI  31
MANITOWOC      NOT AVBL
APPLETON       CLOUDY    32  28  86 S6        29.54F WCI  26
CLINTONVILLE   CLOUDY    34  28  80 W9        29.56S WCI  26
OSHKOSH        CLOUDY    34  27  75 SW6       29.56F WCI  29
$$

WIZ032>034-041-042-053>061-080800-
SOUTHWEST WISCONSIN

CITY           SKY/WX    TMP DP  RH WIND       PRES   REMARKS
LA CROSSE      LGT SNOW  24  20  84 NW14      29.69R FOG     WCI  12
SPARTA         LGT SNOW  27  23  87 W10       29.66S WCI  17
VIROQUA        CLOUDY    24  18  78 NW18      29.63S WCI  10
BOSCOBEL       CLOUDY    30  19  63 W14G23    29.68R WCI  19
PRAIRIE DU CHI CLOUDY    29  18  65 NW14G21   29.70S WCI  18
PLATTEVILLE    CLOUDY    31  24  76 W17G23    29.65S WCI  19
$$

WIZ056-057-062-063-064-067-068-080800-
SOUTH CENTRAL WISCONSIN

CITY           SKY/WX    TMP DP  RH WIND       PRES   REMARKS
REEDSBURG      CLOUDY    32  29  87 NW8       29.60S WCI  25
BARABOO/DELLS  LGT SNOW  32  31  96 W10       29.59S WCI  24
LONE ROCK      CLOUDY    32  25  75 W23G30    29.63S WCI  19
MINERAL POINT  CLOUDY    32  28  86 W16G25    29.62S WCI  21
MADISON        CLOUDY    33  29  85 MISG      29.59F
MIDDLETON      CLOUDY    35  31  87 SW7       29.60F WCI  29
WATERTOWN      CLOUDY    32  32 100 SW7       29.60F WCI  26
MONROE         CLOUDY    32  32 100 SW10      29.62F WCI  24
JANESVILLE     CLOUDY    32  32 100 SW8       29.63F WCI  25
$$

WIZ051-052-058>065-066-070>072-080800-
SOUTHEAST WISCONSIN

CITY           SKY/WX    TMP DP  RH WIND       PRES   REMARKS
MILWAUKEE      PTCLDY    30  26  85 SW8       29.62F WCI  22
WAUKESHA       MOCLDY    30  27  86 SW8       29.62S WCI  23
MILWAUKEE/TIMM CLEAR     32  27  80 SW7       29.62F WCI  26
RACINE         CLEAR     29  25  85 S6        29.65F WCI  23
BURLINGTON     CLEAR     28  25  89 SW7       29.63F WCI  21
KENOSHA        CLEAR     31  26  82 SW6       29.63F WCI  25
FOND DU LAC    CLOUDY    33  27  78 SW7       29.57F WCI  27
SHEBOYGAN      MOCLDY    28  24  85 S5        29.58F WCI  23
WEST BEND      CLOUDY    30  28  93 CALM      29.59F
JUNEAU         CLOUDY    32  28  87 SW6       29.60S WCI  26
$$

LSZ147-162-080800-
LAKE SUPERIOR

STATION/POSITION TIME  TEMP    WIND        PRES    WAVE
                       AIR SEA DIR/SP/G            HT/PER
                 (UTC) (F)     (DEG/KT/KT) (MB)    (FT/S)
DEVILS ISLAND    0600   26      30/ 16/ 19 1004.5R
PORT WING        0600   27     310/ 15/ 20 1004.4R
SAXON HARBOR     0600   30                 1001.0R
$$

LMZ867-665-643>646-080800-
LAKE MICHIGAN

STATION/POSITION TIME  TEMP    WIND        PRES    WAVE
                       AIR SEA DIR/SP/G            HT/PER
                 (UTC) (F)     (DEG/KT/KT) (MB)    (FT/S)
CHAMBERS ISLAND  0600   36     190/  4/  8 1001.4F
NORTHPORT PIER   0600   37      CALM  /  7 1001.4S
KEWAUNEE LAKESHO 0600   35     240/  2/  7 1001.0F
SHEBOYGAN LAKESH 0600   33     220/  6/  7 1003.0F
PORT WASHINGTON  0640   31     250/  3/  4 1003.7F
MILWAUKEE LAKESH 0610   34     200/  7/  8   N/A
KENOSHA   LAKESH 0600   34     200/  6/  8 1004.4S
$$

TC  - TEMPERATURE IN CELSIUS
VSB - VISIBILITY IN STATUTE MILES
WCI - WIND CHILL INDEX
HX  - HEAT INDEX




USA.gov is the U.S. government's official web portal to all federal, state and local government web resources and services.